| time (UTC) | temp C | wind direction | speed KPH | gust KPH | rain 1hr cm | rain 24hr cm | rain mn cm | humidity % | barometer mb |
| 20260510204601 | 23 | 53 | 3.2 | 6.4 | 0.00 | 0.00 | 0.00 | 71 | 1013.4 |
| 20260510203055 | 23 | 136 | 0.0 | 16.1 | 0.00 | 0.00 | 0.00 | 71 | 1013.5 |
| 20260510201555 | 23 | 79 | 3.2 | 8.0 | 0.00 | 0.00 | 0.00 | 70 | 1013.7 |
| 20260510200059 | 23 | 242 | 3.2 | 8.0 | 0.00 | 0.00 | 0.00 | 69 | 1013.8 |
| 20260510194604 | 23 | 146 | 4.8 | 11.3 | 0.00 | 0.00 | 0.00 | 66 | 1013.6 |
| 20260510193058 | 24 | 126 | 1.6 | 12.9 | 0.00 | 0.00 | 0.00 | 65 | 1013.7 |
| 20260510191618 | 24 | 274 | 0.0 | 6.4 | 0.00 | 0.00 | 0.00 | 61 | 1013.6 |
| 20260510190105 | 24 | 219 | 1.6 | 9.7 | 0.00 | 0.00 | 0.00 | 60 | 1013.7 |
| 20260510184602 | 25 | 150 | 1.6 | 6.4 | 0.00 | 0.00 | 0.00 | 57 | 1013.8 |
| 20260510183059 | 25 | 0 | 3.2 | 9.7 | 0.00 | 0.00 | 0.00 | 57 | 1013.8 |
| 20260510181554 | 25 | 156 | 0.0 | 6.4 | 0.00 | 0.00 | 0.00 | 58 | 1014.0 |
| 20260510180104 | 25 | 150 | 0.0 | 8.0 | 0.00 | 0.00 | 0.00 | 58 | 1014.1 |
| 20260510174607 | 25 | 150 | 1.6 | 6.4 | 0.00 | 0.15 | 0.00 | 58 | 1014.3 |
| 20260510173101 | 25 | 161 | 1.6 | 4.8 | 0.00 | 0.15 | 0.00 | 62 | 1014.2 |
| 20260510171558 | 25 | 134 | 1.6 | 6.4 | 0.00 | 0.15 | 0.00 | 66 | 1014.0 |
| 20260510170111 | 25 | 129 | 1.6 | 6.4 | 0.00 | 0.15 | 0.00 | 62 | 1014.1 |
| 20260510164613 | 25 | 131 | 1.6 | 4.8 | 0.00 | 0.41 | 0.00 | 64 | 1014.3 |
| 20260510163100 | 26 | 290 | 1.6 | 6.4 | 0.00 | 0.41 | 0.00 | 65 | 1014.1 |
| 20260510161554 | 25 | 132 | 1.6 | 4.8 | 0.00 | 0.41 | 0.00 | 68 | 1014.2 |
| 20260510154604 | 25 | 172 | 1.6 | 6.4 | 0.00 | 0.41 | 0.00 | 68 | 1014.2 |
| 20260510153055 | 26 | 127 | 0.0 | 4.8 | 0.00 | 0.41 | 0.00 | 58 | 1014.2 |
| 20260510151555 | 25 | 150 | 1.6 | 6.4 | 0.00 | 0.41 | 0.00 | 62 | 1014.2 |
| 20260510144612 | 23 | 277 | 1.6 | 8.0 | 0.00 | 0.41 | 0.00 | 63 | 1014.5 |
| 20260510143056 | 23 | 284 | 1.6 | 12.9 | 0.00 | 0.41 | 0.00 | 65 | 1014.3 |
| 20260510141554 | 22 | 32 | 3.2 | 11.3 | 0.00 | 0.41 | 0.00 | 67 | 1014.3 |
| 20260510140053 | 22 | 324 | 6.4 | 11.3 | 0.00 | 0.41 | 0.00 | 72 | 1014.3 |
| 20260510134605 | 21 | 0 | 1.6 | 4.8 | 0.00 | 0.41 | 0.00 | 76 | 1013.9 |
| 20260510133055 | 20 | 330 | 1.6 | 6.4 | 0.00 | 0.41 | 0.00 | 78 | 1013.9 |
| 20260510131556 | 19 | 20 | 0.0 | 6.4 | 0.00 | 0.41 | 0.00 | 84 | 1013.8 |
| 20260510130054 | 17 | 287 | 1.6 | 4.8 | 0.00 | 0.41 | 0.00 | 96 | 1013.6 |
| 20260510124606 | 16 | 330 | 0.0 | 4.8 | 0.00 | 0.41 | 0.00 | 99 | 1013.6 |
| 20260510123054 | 16 | 0 | 0.0 | 4.8 | 0.00 | 0.41 | 0.00 | 100 | 1013.4 |
| 20260510121551 | 15 | 0 | 0.0 | 1.6 | 0.00 | 0.41 | 0.00 | 100 | 1013.4 |
| 20260510120051 | 15 | 327 | 0.0 | 0.0 | 0.00 | 0.41 | 0.00 | 100 | 1013.3 |
| 20260510114551 | 13 | 0 | 0.0 | 0.0 | 0.00 | 0.41 | 0.00 | 99 | 1013.1 |
| 20260510113053 | 13 | 0 | 0.0 | 0.0 | 0.00 | 0.41 | 0.00 | 99 | 1013.0 |
| 20260510111551 | 12 | 0 | 0.0 | 0.0 | 0.00 | 0.41 | 0.00 | 99 | 1012.7 |
| 20260510110050 | 12 | 0 | 0.0 | 0.0 | 0.00 | 0.41 | 0.00 | 99 | 1012.5 |
| 20260510104559 | 11 | 0 | 0.0 | 0.0 | 0.00 | 0.41 | 0.00 | 99 | 1012.2 |
| 20260510103051 | 11 | 0 | 0.0 | 0.0 | 0.00 | 0.41 | 0.00 | 99 | 1012.2 |
| 20260510101552 | 11 | 0 | 0.0 | 0.0 | 0.00 | 0.41 | 0.00 | 99 | 1012.0 |
| 20260510100056 | 11 | 0 | 0.0 | 0.0 | 0.00 | 0.41 | 0.00 | 98 | 1011.6 |
| 20260510094602 | 12 | 0 | 0.0 | 0.0 | 0.00 | 0.41 | 0.00 | 99 | 1011.6 |
| 20260510093117 | 12 | 0 | 0.0 | 0.0 | 0.00 | 0.41 | 0.00 | 99 | 1011.4 |
| 20260510091550 | 12 | 0 | 0.0 | 0.0 | 0.00 | 0.41 | 0.00 | 99 | 1011.4 |
| 20260510090055 | 12 | 0 | 0.0 | 0.0 | 0.00 | 0.41 | 0.00 | 99 | 1011.3 |
| 20260510084601 | 12 | 0 | 0.0 | 0.0 | 0.00 | 0.41 | 0.00 | 99 | 1011.1 |
| 20260510083059 | 12 | 0 | 0.0 | 0.0 | 0.00 | 0.41 | 0.00 | 99 | 1011.0 |
| 20260510081600 | 11 | 0 | 0.0 | 0.0 | 0.00 | 0.41 | 0.00 | 98 | 1011.0 |
| 20260510080054 | 12 | 0 | 0.0 | 0.0 | 0.00 | 0.41 | 0.00 | 98 | 1011.0 |
| 20260510074555 | 12 | 0 | 0.0 | 0.0 | 0.00 | 0.41 | 0.00 | 98 | 1011.0 |
| 20260510073052 | 12 | 0 | 0.0 | 0.0 | 0.00 | 0.41 | 0.00 | 99 | 1010.9 |
| 20260510071555 | 12 | 0 | 0.0 | 0.0 | 0.00 | 0.41 | 0.00 | 99 | 1011.0 |
| 20260510070054 | 12 | 0 | 0.0 | 0.0 | 0.00 | 0.41 | 0.00 | 98 | 1011.1 |
| 20260510064553 | 12 | 0 | 0.0 | 0.0 | 0.00 | 0.41 | 0.00 | 98 | 1011.1 |
| 20260510063057 | 12 | 0 | 0.0 | 0.0 | 0.00 | 0.41 | 0.00 | 98 | 1011.1 |
| 20260510061555 | 12 | 0 | 0.0 | 0.0 | 0.00 | 0.41 | 0.00 | 98 | 1011.1 |
| 20260510060100 | 12 | 0 | 0.0 | 0.0 | 0.00 | 0.41 | 0.00 | 98 | 1011.1 |
| 20260510054559 | 12 | 0 | 0.0 | 0.0 | 0.00 | 0.41 | 0.00 | 98 | 1011.1 |
| 20260510053101 | 12 | 0 | 0.0 | 0.0 | 0.00 | 0.41 | 0.00 | 98 | 1011.3 |
| 20260510051557 | 13 | 0 | 0.0 | 0.0 | 0.00 | 0.41 | 0.00 | 98 | 1011.3 |
| 20260510050056 | 12 | 0 | 0.0 | 0.0 | 0.00 | 0.41 | 0.00 | 98 | 1011.3 |
| 20260510044557 | 13 | 0 | 0.0 | 0.0 | 0.00 | 0.41 | 0.00 | 98 | 1011.3 |
| 20260510043102 | 13 | 0 | 0.0 | 0.0 | 0.00 | 0.41 | 0.00 | 98 | 1011.2 |
| 20260510041555 | 13 | 0 | 0.0 | 0.0 | 0.00 | 0.41 | 0.00 | 97 | 1011.2 |
| 20260510040059 | 14 | 0 | 0.0 | 0.0 | 0.00 | 0.41 | 0.00 | 98 | 1011.2 |
| 20260510034555 | 14 | 0 | 0.0 | 0.0 | 0.00 | 0.41 | 0.41 | 98 | 1011.0 |
| 20260510033107 | 14 | 0 | 0.0 | 0.0 | 0.00 | 0.41 | 0.41 | 97 | 1010.9 |
| 20260510031554 | 14 | 0 | 0.0 | 0.0 | 0.00 | 0.41 | 0.41 | 97 | 1010.9 |
| 20260510030103 | 14 | 0 | 0.0 | 0.0 | 0.00 | 0.41 | 0.41 | 97 | 1010.8 |
| 20260510024557 | 14 | 0 | 0.0 | 0.0 | 0.00 | 0.41 | 0.41 | 97 | 1010.8 |
| 20260510023053 | 15 | 0 | 0.0 | 0.0 | 0.00 | 0.41 | 0.41 | 97 | 1010.8 |
| 20260510021552 | 15 | 0 | 0.0 | 0.0 | 0.00 | 0.41 | 0.41 | 97 | 1010.9 |
| 20260510020058 | 15 | 0 | 0.0 | 0.0 | 0.00 | 0.41 | 0.41 | 96 | 1010.9 |
| 20260510014559 | 15 | 0 | 0.0 | 0.0 | 0.00 | 0.41 | 0.41 | 96 | 1010.8 |
| 20260510013057 | 16 | 0 | 0.0 | 0.0 | 0.00 | 0.41 | 0.41 | 96 | 1010.7 |
| 20260510011554 | 16 | 0 | 0.0 | 0.0 | 0.00 | 0.41 | 0.41 | 95 | 1010.6 |
| 20260510010056 | 16 | 0 | 0.0 | 0.0 | 0.00 | 0.41 | 0.41 | 95 | 1010.3 |
| 20260510004559 | 16 | 0 | 0.0 | 0.0 | 0.00 | 0.41 | 0.41 | 94 | 1010.1 |
| 20260510003059 | 16 | 0 | 0.0 | 0.0 | 0.00 | 0.41 | 0.41 | 93 | 1010.0 |
| 20260510001552 | 17 | 0 | 0.0 | 0.0 | 0.00 | 0.41 | 0.41 | 93 | 1010.1 |
| 20260510000100 | 17 | 0 | 0.0 | 0.0 | 0.00 | 0.41 | 0.41 | 93 | 1010.1 |
| 20260509234552 | 17 | 0 | 0.0 | 0.0 | 0.00 | 0.41 | 0.41 | 92 | 1009.9 |
| 20260509233053 | 18 | 0 | 0.0 | 1.6 | 0.00 | 0.41 | 0.41 | 90 | 1009.9 |
| 20260509231552 | 18 | 129 | 0.0 | 4.8 | 0.00 | 0.41 | 0.41 | 88 | 1009.7 |
| 20260509230056 | 20 | 132 | 1.6 | 3.2 | 0.00 | 0.41 | 0.41 | 87 | 1009.4 |
| 20260509224552 | 20 | 141 | 1.6 | 3.2 | 0.00 | 0.41 | 0.41 | 87 | 1009.4 |
| 20260509223050 | 20 | 134 | 1.6 | 6.4 | 0.00 | 0.41 | 0.41 | 87 | 1009.3 |
| 20260509221549 | 20 | 143 | 1.6 | 6.4 | 0.00 | 0.41 | 0.41 | 87 | 1009.4 |
| 20260509220052 | 20 | 104 | 3.2 | 9.7 | 0.00 | 0.41 | 0.41 | 86 | 1009.6 |
| 20260509214610 | 20 | 181 | 1.6 | 12.9 | 0.00 | 0.41 | 0.41 | 85 | 1009.7 |
| 20260509213051 | 20 | 184 | 3.2 | 8.0 | 0.00 | 0.41 | 0.41 | 84 | 1009.6 |
| 20260509211550 | 20 | 86 | 3.2 | 9.7 | 0.00 | 0.41 | 0.41 | 84 | 1009.5 |